Theta_e
319 324 329 332 335 336 338 341 343 344 344 344 344 343 342 341 342 344 346 346 345 346 345 345 343 341 339 338 340 339 342 343 345 345 344 343 342 340 340 339 341 338 339
318 322 326 329 331 332 332 333 335 338 341 344 344 344 344 343 342 343 345 346 345 345 346 345 345 343 343 341 341 341 341 341 341 342 341 341 341 339 337 336 339 337 338
318 319 323 326 327 327 328 328 329 331 334 338 341 343 344 343 343 343 343 345 345 345 346 345 344 343 343 342 342 342 339 338 338 338 338 336 336 338 337 338 340 339 338
315 317 320 322 323 324 325 325 326 326 328 331 334 338 339 342 342 343 342 343 344 344 345 344 343 342 341 341 341 340 337 335 335 334 334 334 332 336 339 339 340 340 340
314 314 316 319 320 321 322 322 323 323 324 326 327 331 335 337 340 341 341 342 342 342 342 343 342 341 339 339 338 337 335 333 332 330 334 335 333 335 339 340 339 339 338
313 313 314 316 317 318 319 320 320 321 322 323 324 326 328 331 335 336 340 340 341 341 341 341 341 340 339 338 337 335 333 331 329 328 331 333 332 338 338 337 335 336 337
312 312 312 313 314 315 316 317 318 318 319 320 321 322 324 325 328 333 334 339 340 340 341 341 340 339 338 337 336 333 332 331 326 327 327 331 332 336 338 335 334 335 336
310 311 310 309 310 311 312 313 314 316 317 317 318 319 320 321 323 326 329 334 337 339 339 339 339 338 337 337 335 333 332 328 324 326 327 328 334 336 337 334 334 335 337
310 309 309 309 309 308 309 310 312 313 314 315 315 316 316 317 317 319 323 328 334 337 339 339 338 337 337 336 333 332 328 324 326 327 327 331 333 336 337 336 335 335 337
308 307 308 309 309 310 310 309 309 311 312 313 313 313 313 313 314 315 319 324 328 333 338 338 336 337 336 335 332 329 325 322 326 329 331 333 334 336 337 336 336 336 336
306 307 307 308 308 309 308 307 309 310 310 311 311 311 310 313 314 315 317 319 325 330 334 335 335 334 333 331 329 326 323 324 326 330 331 329 333 335 336 335 336 335 334
305 306 307 307 307 307 307 309 310 311 312 312 312 312 312 312 313 313 312 313 317 322 326 333 333 331 328 328 327 323 322 324 325 327 328 327 332 334 336 334 334 335 336
306 307 306 306 305 307 308 309 310 310 311 312 312 312 312 312 313 313 314 316 321 321 329 332 331 328 326 325 324 322 321 322 324 326 324 325 330 333 335 335 335 335 335
305 305 306 305 305 307 308 308 309 309 310 311 312 312 312 311 312 312 312 314 319 326 332 332 327 325 324 325 323 322 320 321 324 325 323 324 331 332 334 335 335 334 333
304 305 304 304 306 307 307 308 309 309 310 311 311 312 312 311 311 311 312 313 316 323 330 328 324 322 323 322 321 319 319 320 324 324 327 321 329 332 333 333 333 333 333
304 303 302 303 306 307 307 308 308 309 310 311 311 312 311 310 311 311 310 312 315 319 322 324 322 321 320 321 320 319 317 320 325 328 328 327 324 329 331 333 333 333 332
303 301 301 303 306 306 307 307 308 310 310 310 311 312 311 310 309 310 310 311 314 318 321 322 321 322 318 319 318 318 319 322 326 327 328 328 326 320 327 332 332 331 331
301 299 302 304 306 307 306 307 308 310 310 310 309 308 308 309 309 308 309 311 315 316 322 320 319 316 315 317 316 318 323 324 325 326 325 323 322 322 320 326 329 329 329
299 299 302 305 306 306 307 308 309 310 309 309 309 308 309 308 308 309 308 311 314 312 322 320 317 315 315 316 318 319 320 320 320 320 319 318 317 319 320 317 318 322 326
298 300 303 305 306 305 307 307 309 309 309 310 309 309 309 308 308 309 309 311 310 312 319 317 314 315 316 315 312 311 312 312 314 313 312 311 312 314 316 317 319 317 320
298 301 303 304 304 305 304 304 304 303 307 308 309 309 309 308 308 309 309 309 310 310 318 316 313 315 314 313 308 305 306 307 306 306 307 307 307 308 309 310 312 314 314
297 301 303 303 304 303 303 303 303 303 307 310 309 310 309 308 309 309 310 307 309 315 318 315 315 312 311 314 309 306 301 301 301 301 301 302 302 302 302 303 304 305 306
299 302 302 303 303 304 304 304 304 308 309 309 311 310 308 309 310 310 309 309 310 313 317 316 315 312 310 313 314 312 302 297 297 298 296 298 299 299 299 300 300 301 303
300 302 303 303 303 303 304 303 302 304 304 306 311 312 309 309 311 311 311 311 313 314 317 316 315 313 313 310 315 314 313 306 301 293 294 295 296 295 298 298 299 299 302
300 303 303 303 303 302 303 302 303 307 307 310 310 312 311 313 312 311 312 312 317 319 318 316 315 314 313 312 312 313 310 310 308 298 290 290 293 294 294 295 296 299 300
300 303 304 303 302 302 302 302 303 306 305 307 306 309 315 315 315 314 318 319 321 320 319 317 315 314 313 313 312 313 311 307 304 300 294 293 290 291 293 293 294 295 298
Wind_Speed
4 6 12 13 13 14 14 14 14 11 9 8 8 8 7 7 7 7 8 10 11 15 18 16 15 16 17 10 3 4 5 11 11 10 10 12 13 11 10 9 7 9 9
3 5 9 12 12 13 13 13 13 13 14 12 10 10 10 10 9 10 9 11 12 14 14 14 16 17 16 15 12 10 11 9 9 8 9 8 11 10 9 7 2 10 9
3 5 7 12 12 12 12 12 12 12 13 12 13 13 13 12 12 12 13 11 13 15 14 14 15 16 14 16 16 14 11 10 11 8 8 8 9 11 10 9 8 10 9
3 5 7 11 12 12 12 11 11 12 11 12 12 12 13 12 13 14 14 13 13 15 16 16 15 15 15 14 15 14 12 10 9 8 8 7 9 11 9 10 9 10 9
3 5 7 9 10 10 11 11 12 11 11 12 13 12 13 12 13 14 16 16 15 15 16 17 17 17 17 16 16 14 13 12 9 8 7 6 7 10 9 11 11 9 4
2 3 5 9 10 11 11 11 12 12 12 12 12 12 13 12 12 13 13 18 18 17 18 19 17 19 19 18 18 15 14 14 11 7 8 6 7 11 10 7 8 7 6
1 4 4 6 8 9 11 12 12 13 12 13 13 13 13 14 14 13 13 13 19 20 20 19 17 16 19 18 17 16 14 11 8 8 8 9 8 10 10 8 7 6 5
1 1 2 3 6 8 9 10 10 11 12 14 14 14 14 14 14 14 14 15 12 20 21 19 16 18 17 17 17 14 11 10 6 8 8 8 9 7 12 9 8 7 5
2 2 3 4 5 4 7 9 11 13 13 14 15 15 15 15 15 15 15 14 18 16 22 19 17 19 19 18 17 14 11 8 8 5 8 7 8 11 13 12 11 9 8
4 3 4 5 6 7 8 9 11 14 15 16 16 16 15 16 17 15 15 14 16 21 19 21 18 20 20 20 17 14 12 8 7 7 7 4 9 11 12 12 12 11 9
6 5 4 6 7 8 9 8 10 12 14 15 13 13 11 9 11 11 10 12 15 16 20 22 20 21 20 19 17 15 12 6 6 5 5 6 5 8 12 13 11 11 10
6 4 4 6 8 9 8 10 10 11 9 10 9 10 8 9 9 9 12 15 15 16 16 17 20 21 15 9 8 12 6 7 6 5 4 4 3 9 13 12 12 10 10
3 4 6 6 7 9 8 7 6 6 7 7 9 8 8 7 6 6 6 7 7 9 8 11 14 10 12 7 8 8 8 7 5 5 5 3 3 9 13 12 13 13 13
4 5 5 7 8 9 7 8 9 8 7 7 7 9 6 5 6 6 5 7 6 5 8 10 7 12 11 12 7 9 8 7 5 4 5 5 4 9 13 12 13 13 12
5 5 6 7 9 9 10 9 9 8 7 8 8 8 7 7 6 6 6 6 5 4 7 8 10 11 10 12 5 5 8 8 8 4 5 6 7 9 12 12 13 13 15
4 5 7 8 9 10 11 12 9 8 8 7 7 7 8 7 7 6 6 6 6 6 7 10 11 11 7 8 11 9 9 7 8 9 7 9 14 8 10 13 14 16 19
3 5 7 9 10 11 13 11 9 8 8 8 8 8 8 7 7 8 6 6 6 4 6 12 12 9 11 9 10 10 8 8 8 12 11 8 12 19 11 12 16 17 20
3 5 7 8 11 12 11 9 8 8 8 7 7 6 8 7 7 8 6 6 4 4 7 11 13 11 10 9 8 9 8 7 11 12 12 9 8 9 14 17 14 17 20
2 5 7 10 12 12 11 9 10 10 7 7 7 6 7 6 6 7 5 5 4 4 10 11 11 15 9 10 9 7 8 8 11 10 13 13 10 9 10 21 20 13 16
2 5 7 8 11 12 9 9 8 8 7 6 6 5 5 4 5 5 4 3 2 6 12 12 15 12 12 11 10 10 8 9 8 8 10 10 10 11 10 12 11 11 17
0 5 7 10 10 8 8 8 7 8 8 6 5 5 4 3 4 5 3 1 3 3 13 15 15 16 11 14 10 10 10 11 11 8 7 9 11 10 11 9 8 8 9
2 5 7 8 8 7 6 7 5 7 7 7 5 4 0 1 3 4 3 2 4 1 16 17 16 12 11 10 9 8 5 5 10 9 7 9 10 9 11 11 11 10 8
1 5 7 7 7 8 9 7 7 6 4 4 4 2 2 2 2 4 5 3 2 1 11 14 14 18 12 7 14 9 6 4 6 4 11 8 8 7 8 10 11 9 9
1 3 5 6 7 7 9 7 8 4 4 4 6 4 3 3 4 6 7 8 7 1 11 11 10 11 10 13 5 5 7 11 5 5 6 7 7 9 9 6 9 8 8
1 3 4 5 5 7 7 6 6 6 5 5 4 4 5 4 4 5 3 3 6 7 11 13 13 10 8 10 6 9 13 8 8 5 5 4 6 7 6 5 6 7 7
2 2 3 5 5 6 7 6 6 7 8 7 8 5 5 3 2 2 3 8 13 11 10 10 11 11 9 6 6 11 11 7 10 8 6 7 7 4 5 5 5 5 4
Wind_Direction
61 24 21 23 27 27 21 16 13 0 336 321 302 276 264 263 262 240 207 190 177 173 170 174 186 183 177 179 167 140 180 175 175 163 150 143 124 119 119 118 150 117 117
347 27 36 28 29 26 21 18 10 4 1 347 310 286 263 254 251 250 230 203 193 195 196 190 191 188 192 181 162 166 169 147 131 119 123 119 119 126 126 130 114 119 133
39 24 34 22 20 17 14 10 5 2 356 350 349 344 294 259 250 240 237 225 199 195 193 192 184 181 179 168 166 156 148 129 125 130 166 161 130 138 140 147 134 139 141
47 28 27 13 9 4 359 355 351 350 347 342 341 337 336 310 261 251 248 233 220 206 197 192 182 169 161 158 154 151 152 139 136 151 190 163 143 144 148 172 153 148 138
58 19 26 9 1 354 349 345 340 334 328 328 325 331 316 318 326 272 253 244 234 222 209 196 188 174 167 162 153 155 152 144 138 201 180 178 154 150 147 132 146 138 131
51 10 28 6 360 355 348 340 335 331 328 324 321 320 316 307 296 301 287 251 237 226 222 201 193 179 171 165 157 155 154 150 151 199 194 156 184 153 157 138 118 115 118
23 12 12 20 15 4 353 343 335 328 327 326 318 313 309 306 306 292 282 295 245 236 228 213 198 181 175 172 165 157 166 143 193 195 189 176 176 180 156 142 129 121 114
6 349 4 46 8 356 349 343 335 326 318 315 313 306 301 297 297 299 290 269 283 237 229 222 209 187 172 162 151 153 147 158 186 182 184 186 139 210 155 148 140 128 132
195 247 323 335 334 291 321 324 328 325 317 313 309 301 297 292 290 288 288 275 262 268 225 221 209 189 167 153 147 147 140 142 185 188 185 190 170 187 158 151 145 136 119
205 258 294 300 305 319 322 320 317 307 305 305 301 295 290 290 279 273 277 262 255 248 250 212 201 186 167 152 147 139 134 139 186 176 180 162 188 182 169 157 142 133 122
222 243 282 305 318 319 315 315 301 296 298 295 288 288 283 272 282 278 269 291 274 267 258 212 195 182 161 149 144 139 145 171 173 170 165 140 173 156 131 145 136 126 122
228 253 301 313 315 316 311 315 309 305 300 295 289 294 295 281 277 294 288 279 271 267 274 238 191 164 142 144 136 137 165 166 167 170 163 147 183 158 133 132 128 125 119
249 278 307 310 314 313 317 316 304 301 297 293 285 280 281 282 275 271 275 266 259 232 242 235 173 165 141 130 144 168 165 171 165 160 128 146 189 172 146 139 130 126 120
252 290 297 311 309 314 315 312 311 300 294 280 276 281 272 266 271 272 272 275 267 261 247 187 149 132 113 112 153 155 170 175 167 156 130 168 183 171 149 141 137 129 118
259 284 306 314 313 320 318 313 305 295 283 285 282 278 270 265 263 274 266 270 261 290 254 145 138 120 141 143 134 162 165 175 160 144 127 127 119 150 151 146 135 129 119
257 291 322 312 319 321 315 308 301 291 290 285 279 280 281 270 270 271 270 260 248 248 274 150 140 122 125 128 144 166 175 159 158 140 104 77 58 85 144 142 142 131 119
269 321 316 321 325 323 314 310 298 292 293 287 292 288 281 266 263 269 271 259 249 242 228 140 132 122 124 136 150 161 157 158 157 133 112 95 78 52 59 121 127 124 117
287 316 317 325 322 325 315 309 304 301 300 296 285 278 267 262 254 263 262 254 253 273 171 144 139 121 117 138 143 140 135 123 115 111 100 93 79 72 57 66 96 114 112
297 319 328 329 332 331 323 318 309 306 306 292 289 276 267 250 243 253 248 254 258 276 142 134 132 122 131 134 117 118 108 99 109 100 93 90 82 81 81 65 63 64 103
301 326 333 334 340 333 327 315 312 314 304 289 281 277 283 242 238 248 238 243 304 290 133 128 125 130 127 112 101 83 79 79 83 86 91 88 82 81 82 76 76 65 75
235 341 342 343 347 339 330 329 326 316 319 316 296 290 271 223 228 238 232 12 256 304 125 127 131 133 130 128 110 86 71 66 66 63 74 84 80 75 81 77 69 72 64
344 349 349 350 344 330 322 321 299 299 300 302 290 289 214 198 219 206 170 76 321 162 121 135 148 136 137 153 141 118 112 76 58 45 52 66 75 76 72 71 75 70 65
22 6 356 346 336 328 329 319 310 306 302 320 352 63 82 168 199 164 151 152 230 40 132 137 144 149 147 133 171 141 143 125 121 32 50 57 69 73 73 75 73 67 74
91 2 358 347 343 330 328 328 324 319 338 320 339 87 102 183 177 164 172 172 184 67 134 145 147 153 146 146 156 137 102 144 131 128 48 53 69 70 78 75 78 68 77
126 351 352 352 353 335 331 334 319 340 351 335 1 37 80 101 160 161 167 287 175 139 139 149 153 155 165 148 140 130 134 136 129 131 123 123 73 61 65 66 81 86 85
149 296 2 9 4 342 336 335 338 1 12 10 356 10 103 91 67 353 143 106 135 132 139 148 156 151 162 107 138 139 151 153 148 142 115 132 119 74 70 75 79 83 88